VOI1312 MMGL-MMPR

Flight info

Callsign VOI1312
Flight time 0h 25m
Altitude 20000
Route NOTUP1E NOTUP NOTUP1B
Aircraft A21N/M-SDE2E3FGHIRWXY/LB1

Departure

Time 2026-04-21 02:23
Airport Guadalajara International Airport (MMGL)

Arrival

Time 2026-04-21 02:48
Airport Puerto Vallarta International Airport (MMPR)
Time Latitude Longitude Altitude Speed Heading
2026-04-21 01:49 20.52411 -103.30034 5028 ft 0 kts 18°
2026-04-21 01:58 20.52407 -103.30035 5028 ft 2 kts 18°
2026-04-21 01:58 20.52393 -103.30040 5028 ft 2 kts 18°
2026-04-21 01:59 20.52378 -103.30045 5027 ft 2 kts 23°
2026-04-21 01:59 20.52367 -103.30056 5027 ft 2 kts 64°
2026-04-21 01:59 20.52364 -103.30071 5027 ft 2 kts 97°
2026-04-21 01:59 20.52366 -103.30079 5027 ft 1 kts 114°
2026-04-21 02:00 20.52368 -103.30084 5027 ft 0 kts 110°
2026-04-21 02:05 20.52364 -103.30072 5027 ft 4 kts 109°
2026-04-21 02:05 20.52324 -103.30029 5027 ft 10 kts 191°
2026-04-21 02:05 20.52266 -103.30051 5028 ft 11 kts 199°
2026-04-21 02:05 20.52183 -103.30054 5028 ft 12 kts 135°
2026-04-21 02:06 20.52140 -103.29974 5028 ft 12 kts 112°
2026-04-21 02:06 20.52103 -103.29884 5028 ft 14 kts 115°
2026-04-21 02:06 20.52062 -103.29790 5028 ft 10 kts 114°
2026-04-21 02:06 20.52025 -103.29704 5028 ft 14 kts 113°
2026-04-21 02:07 20.51981 -103.29594 5028 ft 16 kts 114°
2026-04-21 02:07 20.51897 -103.29539 5028 ft 16 kts 206°
2026-04-21 02:07 20.51820 -103.29608 5028 ft 12 kts 278°
2026-04-21 02:07 20.51837 -103.29654 5028 ft 6 kts 284°
2026-04-21 02:08 20.51843 -103.29672 5028 ft 0 kts 292°
2026-04-21 02:11 20.51844 -103.29672 5028 ft 0 kts 292°
2026-04-21 02:11 20.51844 -103.29675 5028 ft 0 kts 292°
2026-04-21 02:11 20.51845 -103.29677 5028 ft 0 kts 292°
2026-04-21 02:12 20.51846 -103.29679 5028 ft 0 kts 292°
2026-04-21 02:12 20.51847 -103.29681 5028 ft 0 kts 292°
2026-04-21 02:12 20.51848 -103.29683 5028 ft 0 kts 292°
2026-04-21 02:12 20.51849 -103.29685 5028 ft 0 kts 292°
2026-04-21 02:13 20.51849 -103.29687 5028 ft 0 kts 292°
2026-04-21 02:17 20.51850 -103.29688 5028 ft 0 kts 292°
2026-04-21 02:17 20.51850 -103.29689 5028 ft 0 kts 292°
2026-04-21 02:22 20.51943 -103.29906 5029 ft 68 kts 293°
2026-04-21 02:22 20.52222 -103.30591 5031 ft 131 kts 294°
2026-04-21 02:22 20.52674 -103.31672 5065 ft 179 kts 292°
2026-04-21 02:22 20.53199 -103.32930 5410 ft 195 kts 292°
2026-04-21 02:23 20.53736 -103.34237 6202 ft 192 kts 291°
2026-04-21 02:23 20.54241 -103.35516 7057 ft 186 kts 291°
2026-04-21 02:23 20.54749 -103.36813 7534 ft 200 kts 291°
2026-04-21 02:23 20.55310 -103.38229 7976 ft 216 kts 292°
2026-04-21 02:24 20.55927 -103.39772 8390 ft 236 kts 292°
2026-04-21 02:24 20.56595 -103.41433 8901 ft 251 kts 292°
2026-04-21 02:24 20.57284 -103.43140 9725 ft 252 kts 293°
2026-04-21 02:24 20.57975 -103.44851 10496 ft 254 kts 293°
2026-04-21 02:25 20.58676 -103.46588 11240 ft 257 kts 292°
2026-04-21 02:25 20.59327 -103.48398 11799 ft 268 kts 290°
2026-04-21 02:25 20.59980 -103.50304 12192 ft 285 kts 290°
2026-04-21 02:25 20.60676 -103.52361 12575 ft 303 kts 290°
2026-04-21 02:26 20.61410 -103.54530 12929 ft 321 kts 290°
2026-04-21 02:26 20.62185 -103.56808 13305 ft 337 kts 290°
2026-04-21 02:26 20.63002 -103.59205 13912 ft 344 kts 290°
2026-04-21 02:26 20.63820 -103.61600 14629 ft 347 kts 290°
2026-04-21 02:27 20.64645 -103.64012 15303 ft 351 kts 290°
2026-04-21 02:27 20.65481 -103.66462 15967 ft 355 kts 289°
2026-04-21 02:27 20.66335 -103.68961 16638 ft 358 kts 289°
2026-04-21 02:27 20.67181 -103.71442 17269 ft 362 kts 289°
2026-04-21 02:28 20.68045 -103.73979 17890 ft 366 kts 289°
2026-04-21 02:28 20.68915 -103.76538 18538 ft 368 kts 289°
2026-04-21 02:28 20.69788 -103.79106 19182 ft 370 kts 289°
2026-04-21 02:28 20.70655 -103.81657 19770 ft 372 kts 289°
2026-04-21 02:29 20.71549 -103.84288 20162 ft 373 kts 289°
2026-04-21 02:29 20.72434 -103.86891 20275 ft 373 kts 289°
2026-04-21 02:29 20.73310 -103.89471 20279 ft 373 kts 289°
2026-04-21 02:29 20.74194 -103.92068 20281 ft 372 kts 289°
2026-04-21 02:30 20.75072 -103.94656 20274 ft 372 kts 289°
2026-04-21 02:30 20.75954 -103.97255 20267 ft 371 kts 289°
2026-04-21 02:30 20.76831 -103.99841 20263 ft 371 kts 289°
2026-04-21 02:30 20.77709 -104.02432 20250 ft 371 kts 289°
2026-04-21 02:31 20.78589 -104.05030 20261 ft 372 kts 289°
2026-04-21 02:31 20.79469 -104.07630 20261 ft 371 kts 289°
2026-04-21 02:31 20.80342 -104.10212 20132 ft 371 kts 289°
2026-04-21 02:31 20.81218 -104.12801 19879 ft 369 kts 289°
2026-04-21 02:32 20.82091 -104.15385 19635 ft 367 kts 289°
2026-04-21 02:32 20.82951 -104.17933 19338 ft 367 kts 289°
2026-04-21 02:32 20.83816 -104.20495 18955 ft 365 kts 289°
2026-04-21 02:32 20.84632 -104.23014 18537 ft 362 kts 284°
2026-04-21 02:33 20.85019 -104.25652 18148 ft 357 kts 271°
2026-04-21 02:33 20.84869 -104.28279 17838 ft 349 kts 261°
2026-04-21 02:33 20.84479 -104.30787 17513 ft 343 kts 259°
2026-04-21 02:33 20.84058 -104.33284 17173 ft 338 kts 259°
2026-04-21 02:34 20.83645 -104.35736 16827 ft 333 kts 259°
2026-04-21 02:34 20.83248 -104.38140 16493 ft 328 kts 260°
2026-04-21 02:34 20.82856 -104.40540 16157 ft 323 kts 260°
2026-04-21 02:34 20.82480 -104.42866 15836 ft 318 kts 261°
2026-04-21 02:35 20.82278 -104.45216 15515 ft 313 kts 269°
2026-04-21 02:35 20.82372 -104.47498 15203 ft 309 kts 275°
2026-04-21 02:35 20.82607 -104.49756 14897 ft 304 kts 276°
2026-04-21 02:35 20.82862 -104.51998 14587 ft 299 kts 277°
2026-04-21 02:36 20.83108 -104.54163 14294 ft 295 kts 276°
2026-04-21 02:36 20.83350 -104.56336 14006 ft 290 kts 276°
2026-04-21 02:36 20.83581 -104.58439 13728 ft 285 kts 276°
2026-04-21 02:36 20.83809 -104.60531 13445 ft 280 kts 276°
2026-04-21 02:37 20.84031 -104.62570 13133 ft 277 kts 277°
2026-04-21 02:37 20.84254 -104.64625 12709 ft 285 kts 277°
2026-04-21 02:37 20.84485 -104.66756 12271 ft 288 kts 276°
2026-04-21 02:37 20.84716 -104.68873 11837 ft 289 kts 276°
2026-04-21 02:38 20.84945 -104.70992 11416 ft 289 kts 276°
2026-04-21 02:38 20.85175 -104.73111 11040 ft 287 kts 276°
2026-04-21 02:38 20.85403 -104.75234 10702 ft 285 kts 276°
2026-04-21 02:38 20.85628 -104.77320 10355 ft 283 kts 276°
2026-04-21 02:39 20.85851 -104.79385 9975 ft 282 kts 276°
2026-04-21 02:39 20.86075 -104.81477 9584 ft 281 kts 276°
2026-04-21 02:39 20.86296 -104.83534 9136 ft 277 kts 276°
2026-04-21 02:39 20.86514 -104.85576 8514 ft 275 kts 276°
2026-04-21 02:40 20.86727 -104.87580 8060 ft 273 kts 276°
2026-04-21 02:40 20.86944 -104.89612 7578 ft 276 kts 276°
2026-04-21 02:40 20.87158 -104.91620 7242 ft 271 kts 277°
2026-04-21 02:40 20.87369 -104.93600 6770 ft 265 kts 277°
2026-04-21 02:41 20.87572 -104.95509 6299 ft 258 kts 277°
2026-04-21 02:41 20.87772 -104.97372 5906 ft 252 kts 277°
2026-04-21 02:41 20.87969 -104.99217 5644 ft 246 kts 277°
2026-04-21 02:41 20.88154 -105.01018 5369 ft 244 kts 274°
2026-04-21 02:42 20.87857 -105.02796 5014 ft 245 kts 239°
2026-04-21 02:42 20.86778 -105.04182 4701 ft 244 kts 225°
2026-04-21 02:42 20.85574 -105.05441 4445 ft 241 kts 224°
2026-04-21 02:42 20.84386 -105.06699 4192 ft 237 kts 225°
2026-04-21 02:43 20.83248 -105.07948 4011 ft 228 kts 226°
2026-04-21 02:43 20.82180 -105.09145 3799 ft 220 kts 227°
2026-04-21 02:43 20.81143 -105.10326 3506 ft 216 kts 227°
2026-04-21 02:43 20.80120 -105.11496 3226 ft 211 kts 227°
2026-04-21 02:44 20.79141 -105.12620 2978 ft 206 kts 228°
2026-04-21 02:44 20.78182 -105.13721 2807 ft 195 kts 228°
2026-04-21 02:44 20.77280 -105.14757 2576 ft 188 kts 228°
2026-04-21 02:44 20.76390 -105.15784 2227 ft 188 kts 228°
2026-04-21 02:45 20.75521 -105.16788 1977 ft 181 kts 228°
2026-04-21 02:45 20.74697 -105.17737 1737 ft 166 kts 227°
2026-04-21 02:45 20.73947 -105.18597 1512 ft 150 kts 227°
2026-04-21 02:45 20.73260 -105.19386 1325 ft 142 kts 228°
2026-04-21 02:46 20.72579 -105.20168 1136 ft 141 kts 228°
2026-04-21 02:46 20.71917 -105.20930 935 ft 138 kts 227°
2026-04-21 02:46 20.71269 -105.21674 751 ft 137 kts 227°
2026-04-21 02:46 20.70620 -105.22419 561 ft 136 kts 227°
2026-04-21 02:47 20.69976 -105.23157 383 ft 134 kts 227°
2026-04-21 02:47 20.69337 -105.23891 205 ft 133 kts 227°
2026-04-21 02:47 20.68717 -105.24608 60 ft 131 kts 227°
2026-04-21 02:47 20.68152 -105.25262 39 ft 97 kts 226°
2026-04-21 02:48 20.67808 -105.25653 36 ft 53 kts 226°
2026-04-21 02:48 20.67579 -105.25887 36 ft 31 kts 213°
2026-04-21 02:48 20.67417 -105.25962 36 ft 18 kts 197°
2026-04-21 02:48 20.67397 -105.25967 36 ft 0 kts 195°
2026-04-21 02:49 20.67372 -105.25971 36 ft 7 kts 175°
2026-04-21 02:49 20.67344 -105.25922 36 ft 7 kts 39°
2026-04-21 02:49 20.67385 -105.25881 36 ft 8 kts 48°
2026-04-21 02:49 20.67426 -105.25832 36 ft 9 kts 48°
2026-04-21 02:50 20.67473 -105.25776 36 ft 10 kts 48°
2026-04-21 02:50 20.67524 -105.25716 36 ft 11 kts 48°
2026-04-21 02:50 20.67577 -105.25652 36 ft 11 kts 48°
2026-04-21 02:50 20.67635 -105.25584 36 ft 12 kts 48°
2026-04-21 02:51 20.67695 -105.25513 37 ft 12 kts 48°
2026-04-21 02:51 20.67756 -105.25442 37 ft 13 kts 47°
2026-04-21 02:51 20.67818 -105.25371 38 ft 13 kts 47°
2026-04-21 02:51 20.67882 -105.25298 39 ft 13 kts 47°
2026-04-21 02:52 20.67946 -105.25227 39 ft 13 kts 47°
2026-04-21 02:52 20.68010 -105.25153 40 ft 13 kts 47°
2026-04-21 02:52 20.68074 -105.25079 41 ft 12 kts 59°
2026-04-21 02:52 20.68051 -105.24995 41 ft 12 kts 136°
2026-04-21 02:53 20.68004 -105.24950 41 ft 13 kts 137°
2026-04-21 02:53 20.67993 -105.24867 42 ft 12 kts 75°
2026-04-21 02:53 20.67965 -105.24789 43 ft 12 kts 139°
2026-04-21 02:53 20.67921 -105.24789 43 ft 0 kts 234°
2026-04-21 02:54 20.67909 -105.24802 43 ft 0 kts 205°
2026-04-21 02:54 20.67903 -105.24805 43 ft 0 kts 219°